When you browse on this site, cookies collect data to enhance your experience and personalize the content and advertising you see.
Visit our Privacy Policy to learn more. By continuing to use the site, you agree to this use of cookies and data.
  • In Switzerland
  • List of Countries
  • For 7 days
  • Water Temperature
  • Satellite Maps
  • Weather Map
  • Weather Widgets
  • user-avatar
    Login

    Hourly Weather Batina

    Today, 17 June, Monday

    Time Temperature Precipitation Wind Pressure Humidity
    00:00 +23°C° 0 mm 2 mps 671 mmHg 62%
    01:00 +23°C° 0 mm 2 mps 670 mmHg 61%
    02:00 +22°C° 0 mm 1 mps 670 mmHg 61%
    03:00 +22°C° 0 mm 1 mps 670 mmHg 60%
    04:00 +21°C° 0 mm 2 mps 670 mmHg 62%
    05:00 +21°C° 0 mm 2 mps 671 mmHg 64%
    06:00 +21°C° 0 mm 2 mps 671 mmHg 67%
    07:00 +23°C° 0.1 mm 2 mps 671 mmHg 62%
    08:00 +24°C° 0.1 mm 3 mps 671 mmHg 57%
    09:00 +25°C° 0.1 mm 3 mps 672 mmHg 52%
    10:00 +27°C° 0 mm 4 mps 672 mmHg 47%
    11:00 +28°C° 0 mm 5 mps 672 mmHg 41%
    12:00 +29°C° 0 mm 5 mps 672 mmHg 36%
    13:00 +30°C° 0.1 mm 6 mps 672 mmHg 35%
    14:00 +30°C° 0.1 mm 6 mps 671 mmHg 34%
    15:00 +30°C° 0.1 mm 7 mps 671 mmHg 32%
    16:00 +29°C° 0.4 mm 6 mps 671 mmHg 37%
    17:00 +27°C° 0.4 mm 6 mps 671 mmHg 41%
    18:00 +24°C° 0.4 mm 6 mps 671 mmHg 46%
    19:00 +23°C° 0.1 mm 5 mps 671 mmHg 50%
    20:00 +22°C° 0.1 mm 4 mps 671 mmHg 54%
    21:00 +21°C° 0.1 mm 3 mps 671 mmHg 59%
    22:00 +21°C° 0 mm 3 mps 671 mmHg 59%
    23:00 +21°C° 0 mm 2 mps 671 mmHg 60%

    Tomorrow, 18 June, Tuesday

    Time Temperature Precipitation Wind Pressure Humidity
    00:00 +20°C° 0 mm 2 mps 671 mmHg 60%
    01:00 +21°C° 0 mm 1 mps 671 mmHg 61%
    02:00 +20°C° 0 mm 1 mps 671 mmHg 62%
    03:00 +18°C° 0 mm 0 mps 670 mmHg 63%
    04:00 +19°C° 0 mm 0 mps 671 mmHg 57%
    05:00 +21°C° 0 mm 0 mps 671 mmHg 52%
    06:00 +22°C° 0 mm 0 mps 672 mmHg 46%
    07:00 +25°C° 0 mm 1 mps 672 mmHg 41%
    08:00 +27°C° 0 mm 1 mps 673 mmHg 36%
    09:00 +28°C° 0 mm 2 mps 673 mmHg 31%
    10:00 +30°C° 0 mm 2 mps 673 mmHg 28%
    11:00 +31°C° 0 mm 3 mps 674 mmHg 25%
    12:00 +33°C° 0 mm 4 mps 674 mmHg 22%
    13:00 +33°C° 0 mm 4 mps 673 mmHg 21%
    14:00 +34°C° 0 mm 4 mps 673 mmHg 20%
    15:00 +34°C° 0 mm 5 mps 673 mmHg 19%
    16:00 +33°C° 0 mm 4 mps 673 mmHg 21%
    17:00 +33°C° 0 mm 4 mps 672 mmHg 22%
    18:00 +32°C° 0 mm 4 mps 672 mmHg 24%
    19:00 +29°C° 0 mm 3 mps 672 mmHg 30%
    20:00 +27°C° 0 mm 2 mps 672 mmHg 36%
    21:00 +26°C° 0 mm 2 mps 672 mmHg 42%
    22:00 +25°C° 0 mm 1 mps 672 mmHg 43%
    23:00 +25°C° 0 mm 1 mps 672 mmHg 43%

    Day after tomorrow, 19 June, Wednesday

    Time Temperature Precipitation Wind Pressure Humidity
    00:00 +24°C° 0 mm 1 mps 672 mmHg 44%
    01:00 +24°C° 0 mm 2 mps 672 mmHg 43%
    02:00 +24°C° 0 mm 2 mps 671 mmHg 43%
    03:00 +23°C° 0 mm 2 mps 671 mmHg 42%
    04:00 +24°C° 0 mm 2 mps 672 mmHg 39%
    05:00 +25°C° 0 mm 3 mps 672 mmHg 35%
    06:00 +26°C° 0 mm 3 mps 673 mmHg 32%
    07:00 +28°C° 0 mm 4 mps 673 mmHg 29%
    08:00 +30°C° 0 mm 4 mps 674 mmHg 25%
    09:00 +33°C° 0 mm 5 mps 674 mmHg 22%
    10:00 +33°C° 0 mm 5 mps 674 mmHg 21%
    11:00 +34°C° 0 mm 6 mps 674 mmHg 20%
    12:00 +35°C° 0 mm 6 mps 674 mmHg 18%
    13:00 +35°C° 0 mm 6 mps 674 mmHg 18%
    14:00 +35°C° 0 mm 6 mps 673 mmHg 18%
    15:00 +36°C° 0 mm 6 mps 673 mmHg 18%
    16:00 +35°C° 0 mm 5 mps 673 mmHg 19%
    17:00 +34°C° 0 mm 4 mps 673 mmHg 20%
    18:00 +34°C° 0 mm 3 mps 673 mmHg 21%
    19:00 +31°C° 0 mm 2 mps 673 mmHg 24%
    20:00 +30°C° 0 mm 2 mps 672 mmHg 27%
    21:00 +28°C° 0 mm 2 mps 672 mmHg 30%
    22:00 +28°C° 0 mm 2 mps 672 mmHg 31%
    23:00 +27°C° 0 mm 2 mps 672 mmHg 32%

    20 June, Thursday

    Time Temperature Precipitation Wind Pressure Humidity
    00:00 +27°C° 0 mm 2 mps 671 mmHg 33%
    01:00 +27°C° 0 mm 2 mps 671 mmHg 33%
    02:00 +26°C° 0 mm 2 mps 671 mmHg 33%
    03:00 +26°C° 0 mm 2 mps 671 mmHg 33%
    04:00 +27°C° 0 mm 2 mps 671 mmHg 31%
    05:00 +28°C° 0 mm 2 mps 672 mmHg 30%
    06:00 +29°C° 0 mm 2 mps 672 mmHg 28%
    07:00 +31°C° 0 mm 2 mps 672 mmHg 25%
    08:00 +33°C° 0 mm 3 mps 673 mmHg 21%
    09:00 +34°C° 0 mm 4 mps 673 mmHg 18%
    10:00 +35°C° 0 mm 5 mps 673 mmHg 17%
    11:00 +36°C° 0 mm 6 mps 674 mmHg 15%
    12:00 +38°C° 0 mm 7 mps 674 mmHg 14%
    13:00 +38°C° 0 mm 7 mps 673 mmHg 14%
    14:00 +38°C° 0 mm 7 mps 673 mmHg 15%
    15:00 +38°C° 0 mm 8 mps 673 mmHg 15%
    16:00 +36°C° 0 mm 7 mps 672 mmHg 16%
    17:00 +35°C° 0 mm 7 mps 672 mmHg 17%
    18:00 +34°C° 0 mm 6 mps 672 mmHg 18%
    19:00 +33°C° 0 mm 6 mps 672 mmHg 19%
    20:00 +32°C° 0 mm 5 mps 672 mmHg 20%
    21:00 +30°C° 0 mm 4 mps 672 mmHg 22%
    22:00 +29°C° 0 mm 4 mps 672 mmHg 22%
    23:00 +29°C° 0 mm 4 mps 671 mmHg 23%

    21 June, Friday

    Time Temperature Precipitation Wind Pressure Humidity
    00:00 +28°C° 0 mm 4 mps 671 mmHg 24%
    01:00 +28°C° 0 mm 4 mps 671 mmHg 26%
    02:00 +28°C° 0 mm 5 mps 671 mmHg 27%
    03:00 +28°C° 0 mm 5 mps 671 mmHg 29%
    04:00 +28°C° 0 mm 6 mps 671 mmHg 28%
    05:00 +29°C° 0 mm 7 mps 672 mmHg 27%
    06:00 +31°C° 0 mm 8 mps 672 mmHg 27%
    07:00 +32°C° 0 mm 10 mps 673 mmHg 24%
    08:00 +34°C° 0 mm 11 mps 673 mmHg 21%
    09:00 +36°C° 0 mm 12 mps 673 mmHg 19%
    10:00 +37°C° 0 mm 12 mps 673 mmHg 18%
    11:00 +38°C° 0 mm 11 mps 673 mmHg 17%
    12:00 +38°C° 0 mm 10 mps 673 mmHg 16%
    13:00 +38°C° 0 mm 10 mps 673 mmHg 16%
    14:00 +38°C° 0 mm 9 mps 672 mmHg 15%
    15:00 +38°C° 0 mm 9 mps 672 mmHg 15%
    16:00 +38°C° 0 mm 8 mps 671 mmHg 16%
    17:00 +37°C° 0 mm 8 mps 671 mmHg 16%
    18:00 +35°C° 0 mm 7 mps 671 mmHg 16%
    19:00 +34°C° 0 mm 7 mps 671 mmHg 17%
    20:00 +33°C° 0 mm 7 mps 671 mmHg 17%
    21:00 +32°C° 0 mm 7 mps 672 mmHg 18%
    22:00 +32°C° 0 mm 8 mps 672 mmHg 18%
    23:00 +32°C° 0 mm 10 mps 671 mmHg 19%

    22 June, Saturday

    Time Temperature Precipitation Wind Pressure Humidity
    00:00 +31°C° 0 mm 11 mps 671 mmHg 20%
    01:00 +31°C° 0 mm 10 mps 671 mmHg 22%
    02:00 +29°C° 0 mm 9 mps 671 mmHg 23%
    03:00 +28°C° 0 mm 9 mps 672 mmHg 25%
    04:00 +28°C° 0 mm 7 mps 672 mmHg 26%
    05:00 +28°C° 0 mm 6 mps 672 mmHg 28%
    06:00 +28°C° 0 mm 5 mps 673 mmHg 29%
    07:00 +30°C° 0 mm 7 mps 673 mmHg 24%
    08:00 +33°C° 0 mm 9 mps 674 mmHg 20%
    09:00 +36°C° 0 mm 11 mps 674 mmHg 15%
    10:00 +37°C° 0 mm 10 mps 674 mmHg 15%
    11:00 +38°C° 0 mm 10 mps 674 mmHg 14%
    12:00 +39°C° 0 mm 10 mps 674 mmHg 13%
    13:00 +39°C° 0 mm 9 mps 674 mmHg 13%
    14:00 +39°C° 0 mm 8 mps 673 mmHg 13%
    15:00 +39°C° 0 mm 7 mps 673 mmHg 13%
    16:00 +38°C° 0 mm 7 mps 673 mmHg 13%
    17:00 +36°C° 0 mm 6 mps 673 mmHg 14%
    18:00 +36°C° 0 mm 6 mps 673 mmHg 14%
    19:00 +34°C° 0 mm 6 mps 673 mmHg 15%
    20:00 +33°C° 0 mm 6 mps 673 mmHg 16%
    21:00 +32°C° 0 mm 6 mps 673 mmHg 17%
    22:00 +30°C° 0 mm 6 mps 673 mmHg 18%
    23:00 +30°C° 0 mm 7 mps 672 mmHg 19%
    Show more